Find Starlink 31723

NORAD ID: 59553 Int'l Des: 2024-074 Owner: SPXS Country: US Constellation: starlink operational
LEOCIRCULAR

实时位置

正在加载3D地球...

关于 Starlink 31723

正在加载描述...

即将过境

Passes for default location (London). Set your location on the main map for personalized predictions.

高度历史

Loading altitude history...

两行轨道根数

1 59553U 24074V 26123.47731093 .00006897 00000-0 25989-3 0 9998
2 59553 43.0046 34.0864 0000889 277.6201 82.4550 15.27582733114396
Epoch: May 3, 2026 • Age: 19 hours

当前状态

高度 485.4 km
速度 7.63 km/s
星下点 36.95°N, 168.01°W
发射日期 Apr 18, 2024
运行时间 2 years
类型 internet

技术详情

分类 Payload
质量 730.00 kg
干质量 700.00 kg
总质量 730.00 kg
长度 0.30 m
直径 4.10 m
跨度 29.00 m
形状 Box + pan
制造商 SPXS
平台类型 Starlink V2M
阶段状态 In Orbit
所有者/国家 SPXS/US

Most Searched